Location: Newark
(43.0275°N, 0.5708°E)
Time: 01:32:37
(UTC+00:00)

OTV 5 (USA 277) - Pass Details

Date: 29 October 2019
Orbit: 310 x 324 km, 54.5° (Epoch: 17 October)

Event Time Altitude Azimuth Distance (km) Brightness Sun altitude
Rises 18:49:30 0° 243° (WSW) 2,053 ? -21.6°
Reaches altitude 10° 18:51:30 10° 250° (WSW) 1,227 ? -21.9°
Enters shadow 18:53:10 30° 273° (W) 616 ? -22.2°
